Regional Weather Roundup
Issued by NWS State College, PA

Home | Current Version | Previous Version | Graphics & Text | Print | Product List | Glossary On
Versions: 1 2 3 4 5 6 7 8 9 10 11 12 13 14 15 16 17 18 19 20 21 22 23 24 25 26 27 28 29 30 31 32 33 34 35 36 37 38 39 40 41 42 43 44 45 46 47 48 49 50
000
ASUS41 KCTP 282110
RWRCTP

REGIONAL WEATHER ROUNDUP
NATIONAL WEATHER SERVICE STATE COLLEGE PA
400 PM EST SUN DEC 28 2014

Note: "fair" indicates few or no clouds below 12,000 feet with no
significant weather and/or obstructions to visibility.

* = STATION THAT DOES NOT REPORT PRECIPITATION /E.G. RAIN...SNOW...ETC/
    THUNDER OR FOG.

PAZ002>004-007>009-013>016-020>023-029>032-282200-
WESTERN PENNSYLVANIA

CITY           SKY/WX    TMP DP  RH WIND       PRES   REMARKS
ERIE           CLOUDY    37  26  64 W5        30.07R
MEADVILLE      CLOUDY    33  27  78 W5        30.05R
FRANKLIN*      CLOUDY    34  27  75 NW6       30.05R
NEW CASTLE       N/A     36  32  85 NW5       30.09R
BEAVER COUNTY  CLOUDY    37  30  75 W5        30.06
BUTLER*        CLOUDY    37  30  75 W5        30.07R
PITTSBURGH INT CLOUDY    38  31  76 NW8       30.06R
PITTSBURGH     CLOUDY    37  29  72 NW5       30.06R
INDIANA*       MOCLDY    36  34  93 W6        30.07R
LATROBE        LGT RAIN  36  36 100 CALM      30.07R VSB 1
WASHINGTON CO* NOT AVBL
$$

PAZ004>006-010>012-017>019-024>028-033>037-041-042-045-046-049>053-282200-
CENTRAL PENNSYLVANIA

CITY           SKY/WX    TMP DP  RH WIND       PRES   REMARKS
BRADFORD       CLOUDY    31  26  82 NW10      29.99R
DUBOIS         CLOUDY    35  30  82 NW6       29.99R
CLEARFIELD     CLOUDY    38  29  70 W8        30.00S
JOHNSTOWN      CLOUDY    33  32  96 NW9       29.99R FOG
ALTOONA        CLOUDY    39  34  82 NW14      30.01R
STATE COLLEGE  CLOUDY    39  30  70 NW9       30.00R
WILLIAMSPORT   CLOUDY    45  32  60 NW6       29.98R
SELINSGROVE    CLOUDY    47  35  63 NW8       29.99R
FT INDIANTOWN  CLOUDY    49  40  69 W8        29.97R
CAPITAL CITY   CLOUDY    50  39  66 NW8       29.99R
HARRISBURG     CLOUDY    49  40  71 NW12      29.98R
YORK           CLOUDY    51  43  74 NW5       29.97R
$$

PAZ038>040-043-044-047-048-054-055-060>062-067>071-282200-
EASTERN PENNSYLVANIA

CITY           SKY/WX    TMP DP  RH WIND       PRES   REMARKS
SCRANTON       CLOUDY    43  32  65 N8G17     29.97R
MOUNT POCONO   CLOUDY    39  33  79 NW9       29.92R
ALLENTOWN      CLOUDY    51  38  60 W9        29.95R
QUAKERTOWN*    CLOUDY    50  41  71 W5        29.96R
READING        CLOUDY    49  42  77 NW5       29.96R
LANCASTER      CLOUDY    48  43  82 W5        29.96R
COATESVILLE    CLOUDY    50  45  81 NW6       29.97R
POTTSTOWN      CLOUDY    50  42  74 NW6       29.97R
BLUE BELL      CLOUDY    54  43  66 CALM      29.95R
DOYLESTOWN     CLOUDY    50  43  77 NW8       29.95R
WILLOW GROVE   NOT AVBL
NORTH PHILA      N/A     55  40  56 MISG      29.96R
PHILADELPHIA   CLOUDY    56  40  55 W7        29.96R
$$



USA.gov is the U.S. government's official web portal to all federal, state and local government web resources and services.